Time,TemperatureF,DewpointF,PressureIn,WindDirection,WindDirectionDegrees,WindSpeedMPH,WindSpeedGustMPH,Humidity,HourlyPrecipIn,Conditions,Clouds,dailyrainin,SoftwareType,DateUTC
2013-01-13 00:00:00,74.1,63.3,29.75,ESE,112,0.7,8.1,69,0.00,,---,0.02,VWS V13.01,2013-01-13 05:00:00,
2013-01-13 00:10:00,74.1,63.3,29.75,ESE,112,0.7,8.1,69,0.00,,---,0.02,VWS V13.01,2013-01-13 05:10:00,
2013-01-13 00:15:00,74.1,63.7,29.74,ESE,112,9.6,9.6,70,0.00,,---,0.02,VWS V13.01,2013-01-13 05:15:00,
2013-01-13 00:25:00,74.5,64.5,29.75,ESE,112,0.7,9.6,71,0.00,,---,0.02,VWS V13.01,2013-01-13 05:25:00,
2013-01-13 00:30:00,74.5,64.1,29.75,ENE,68,1.6,6.9,70,0.00,,---,0.02,VWS V13.01,2013-01-13 05:30:00,
2013-01-13 00:40:00,74.5,64.5,29.74,ENE,68,6.9,6.9,71,0.00,,---,0.02,VWS V13.01,2013-01-13 05:40:00,
2013-01-13 00:45:00,74.5,64.5,29.75,ENE,68,2.9,6.9,71,0.00,,---,0.02,VWS V13.01,2013-01-13 05:45:00,
2013-01-13 00:55:00,74.5,64.9,29.75,ENE,68,6.3,7.4,72,0.00,,---,0.02,VWS V13.01,2013-01-13 05:55:00,
2013-01-13 01:00:00,74.5,64.9,29.75,ESE,112,6.0,12.8,72,0.00,,---,0.02,VWS V13.01,2013-01-13 06:00:00,
2013-01-13 01:10:00,74.5,64.9,29.75,ESE,112,6.0,12.8,72,0.00,,---,0.02,VWS V13.01,2013-01-13 06:10:00,
2013-01-13 01:15:00,74.5,64.9,29.74,ESE,112,6.7,6.7,72,0.00,,---,0.02,VWS V13.01,2013-01-13 06:15:00,
2013-01-13 01:20:00,74.5,65.3,29.74,East,90,0.0,6.7,73,0.00,,---,0.02,VWS V13.01,2013-01-13 06:20:00,
2013-01-13 01:30:00,74.5,64.9,29.74,ENE,68,3.6,3.6,72,0.00,,---,0.02,VWS V13.01,2013-01-13 06:30:00,
2013-01-13 01:35:00,74.5,64.5,29.74,ENE,68,6.0,7.2,71,0.00,,---,0.02,VWS V13.01,2013-01-13 06:35:00,
2013-01-13 01:45:00,74.5,64.5,29.74,East,90,6.7,6.7,71,0.00,,---,0.02,VWS V13.01,2013-01-13 06:45:00,
2013-01-13 01:50:00,74.7,64.6,29.74,East,90,7.6,7.6,71,0.00,,---,0.02,VWS V13.01,2013-01-13 06:50:00,
2013-01-13 02:00:00,74.8,65.2,29.74,East,90,5.6,11.6,72,0.00,,---,0.02,VWS V13.01,2013-01-13 07:00:00,
2013-01-13 02:10:00,74.5,64.9,29.74,East,90,9.0,9.0,72,0.00,,---,0.02,VWS V13.01,2013-01-13 07:10:00,
2013-01-13 02:20:00,74.5,64.9,29.74,SE,135,6.0,8.7,72,0.00,,---,0.02,VWS V13.01,2013-01-13 07:20:00,
2013-01-13 02:30:00,74.5,64.9,29.74,ESE,112,4.9,4.9,72,0.00,,---,0.02,VWS V13.01,2013-01-13 07:30:00,
2013-01-13 02:40:00,74.3,64.7,29.74,ESE,112,5.4,5.4,72,0.00,,---,0.02,VWS V13.01,2013-01-13 07:40:00,
2013-01-13 02:50:00,74.3,64.7,29.74,ESE,112,7.2,7.2,72,0.00,,---,0.02,VWS V13.01,2013-01-13 07:50:00,
2013-01-13 03:00:00,74.1,64.9,29.73,SE,135,0.7,3.4,73,0.00,,---,0.02,VWS V13.01,2013-01-13 08:00:00,
2013-01-13 03:10:00,73.9,64.3,29.73,East,90,10.5,10.5,72,0.00,,---,0.02,VWS V13.01,2013-01-13 08:10:00,
2013-01-13 03:15:00,74.1,64.1,29.73,ESE,112,7.8,10.5,71,0.00,,---,0.02,VWS V13.01,2013-01-13 08:15:00,
2013-01-13 03:25:00,74.1,63.7,29.73,ESE,112,11.4,11.4,70,0.00,,---,0.02,VWS V13.01,2013-01-13 08:25:00,
2013-01-13 03:30:00,74.1,64.1,29.73,East,90,11.6,11.6,71,0.00,,---,0.02,VWS V13.01,2013-01-13 08:30:00,
2013-01-13 03:40:00,74.1,64.1,29.73,East,90,4.3,4.3,71,0.00,,---,0.02,VWS V13.01,2013-01-13 08:40:00,
2013-01-13 03:50:00,74.1,63.7,29.73,ESE,112,5.4,7.6,70,0.00,,---,0.02,VWS V13.01,2013-01-13 08:50:00,
2013-01-13 03:55:00,74.1,63.3,29.72,East,90,3.6,14.1,69,0.00,,---,0.02,VWS V13.01,2013-01-13 08:55:00,
2013-01-13 04:05:00,74.1,63.7,29.72,East,90,6.5,6.7,70,0.00,,---,0.02,VWS V13.01,2013-01-13 09:05:00,
2013-01-13 04:15:00,74.1,63.3,29.73,ESE,112,12.5,16.6,69,0.00,,---,0.02,VWS V13.01,2013-01-13 09:15:00,
2013-01-13 04:20:00,73.9,63.1,29.73,East,90,6.3,14.3,69,0.00,,---,0.02,VWS V13.01,2013-01-13 09:20:00,
2013-01-13 04:30:00,73.9,63.1,29.73,SE,135,6.9,6.9,69,0.00,,---,0.02,VWS V13.01,2013-01-13 09:30:00,
2013-01-13 04:40:00,73.8,62.5,29.73,SE,135,4.0,9.8,68,0.00,,---,0.02,VWS V13.01,2013-01-13 09:40:00,
2013-01-13 04:45:00,73.8,63.0,29.73,SE,135,7.2,8.5,69,0.00,,---,0.02,VWS V13.01,2013-01-13 09:45:00,
2013-01-13 04:55:00,73.6,62.4,29.73,East,90,7.6,12.3,68,0.00,,---,0.02,VWS V13.01,2013-01-13 09:55:00,
2013-01-13 05:00:00,73.6,62.8,29.73,ESE,112,3.6,7.6,69,0.00,,---,0.02,VWS V13.01,2013-01-13 10:00:00,
2013-01-13 05:10:00,73.4,62.6,29.73,ESE,112,4.5,11.4,69,0.00,,---,0.02,VWS V13.01,2013-01-13 10:10:00,
2013-01-13 05:20:00,73.6,62.8,29.73,ESE,112,10.1,14.3,69,0.00,,---,0.02,VWS V13.01,2013-01-13 10:20:00,
2013-01-13 05:30:00,73.4,62.2,29.73,East,90,8.1,8.1,68,0.00,,---,0.02,VWS V13.01,2013-01-13 10:30:00,
2013-01-13 05:35:00,73.4,62.2,29.73,ESE,112,4.3,11.6,68,0.00,,---,0.02,VWS V13.01,2013-01-13 10:35:00,
2013-01-13 05:45:00,73.2,62.5,29.73,SE,135,8.3,8.3,69,0.00,,---,0.02,VWS V13.01,2013-01-13 10:45:00,
2013-01-13 05:55:00,73.4,62.6,29.73,East,90,6.7,8.1,69,0.00,,---,0.02,VWS V13.01,2013-01-13 10:55:00,
2013-01-13 06:00:00,73.4,62.6,29.73,East,90,6.7,6.7,69,0.00,,---,0.02,VWS V13.01,2013-01-13 11:00:00,
2013-01-13 06:05:00,73.2,62.5,29.74,ESE,112,2.9,6.7,69,0.00,,---,0.02,VWS V13.01,2013-01-13 11:05:00,
2013-01-13 06:15:00,73.2,62.9,29.73,ESE,112,7.8,7.8,70,0.00,,---,0.02,VWS V13.01,2013-01-13 11:15:00,
2013-01-13 06:25:00,73.2,62.9,29.73,East,90,1.6,11.2,70,0.00,,---,0.02,VWS V13.01,2013-01-13 11:25:00,
2013-01-13 06:30:00,73.2,62.5,29.73,SE,135,4.5,4.5,69,0.00,,---,0.02,VWS V13.01,2013-01-13 11:30:00,
2013-01-13 06:40:00,73.2,62.9,29.73,ESE,112,1.6,4.5,70,0.00,,---,0.02,VWS V13.01,2013-01-13 11:40:00,
2013-01-13 06:50:00,73.2,62.9,29.73,ESE,112,12.3,12.3,70,0.00,,---,0.02,VWS V13.01,2013-01-13 11:50:00,
2013-01-13 07:00:00,73.4,63.0,29.73,East,90,2.7,2.7,70,0.00,,---,0.00,VWS V13.01,2013-01-13 12:00:00,
2013-01-13 07:10:00,73.4,63.0,29.73,ENE,68,1.3,3.1,70,0.00,,---,0.00,VWS V13.01,2013-01-13 12:10:00,
2013-01-13 07:20:00,73.2,62.9,29.73,SSE,158,6.3,7.4,70,0.00,,---,0.00,VWS V13.01,2013-01-13 12:20:00,
2013-01-13 07:25:00,73.2,62.9,29.73,ESE,112,1.3,6.3,70,0.00,,---,0.00,VWS V13.01,2013-01-13 12:25:00,
2013-01-13 07:35:00,73.2,62.9,29.73,East,90,2.2,6.9,70,0.00,,---,0.00,VWS V13.01,2013-01-13 12:35:00,
2013-01-13 07:40:00,73.2,62.9,29.74,ESE,112,6.3,6.3,70,0.00,,---,0.00,VWS V13.01,2013-01-13 12:40:00,
2013-01-13 07:50:00,73.6,63.6,29.74,ESE,112,2.5,6.5,71,0.00,,---,0.00,VWS V13.01,2013-01-13 12:50:00,
2013-01-13 07:55:00,73.6,63.6,29.74,ESE,112,2.5,2.5,71,0.00,,---,0.00,VWS V13.01,2013-01-13 12:55:00,
2013-01-13 08:05:00,73.9,64.0,29.74,ENE,68,7.2,8.7,71,0.00,,---,0.00,VWS V13.01,2013-01-13 13:05:00,
2013-01-13 08:15:00,74.1,64.1,29.74,ESE,112,12.8,12.8,71,0.00,,---,0.00,VWS V13.01,2013-01-13 13:15:00,
2013-01-13 08:20:00,74.5,64.5,29.74,ESE,112,4.5,12.8,71,0.00,,---,0.00,VWS V13.01,2013-01-13 13:20:00,
2013-01-13 08:30:00,74.5,64.5,29.74,East,90,6.0,11.2,71,0.00,,---,0.00,VWS V13.01,2013-01-13 13:30:00,
2013-01-13 08:40:00,74.7,64.6,29.74,East,90,6.9,7.2,71,0.00,,---,0.00,VWS V13.01,2013-01-13 13:40:00,
2013-01-13 08:45:00,74.8,64.8,29.74,ESE,112,10.3,10.3,71,0.00,,---,0.00,VWS V13.01,2013-01-13 13:45:00,
2013-01-13 08:55:00,75.4,65.3,29.74,ESE,112,9.6,9.6,71,0.00,,---,0.00,VWS V13.01,2013-01-13 13:55:00,
2013-01-13 09:05:00,76.3,64.9,29.75,ESE,112,3.4,11.4,68,0.00,,---,0.00,VWS V13.01,2013-01-13 14:05:00,
2013-01-13 09:15:00,76.6,65.3,29.75,ESE,112,16.3,16.3,68,0.00,,---,0.00,VWS V13.01,2013-01-13 14:15:00,
2013-01-13 09:20:00,76.3,64.9,29.75,ESE,112,5.6,16.3,68,0.00,,---,0.00,VWS V13.01,2013-01-13 14:20:00,
2013-01-13 09:30:00,76.3,65.4,29.75,SE,135,10.1,10.1,69,0.00,,---,0.00,VWS V13.01,2013-01-13 14:30:00,
2013-01-13 09:35:00,76.8,65.9,29.75,East,90,7.4,10.1,69,0.00,,---,0.00,VWS V13.01,2013-01-13 14:35:00,
2013-01-13 09:45:00,76.5,65.5,29.76,ENE,68,3.1,6.7,69,0.00,,---,0.00,VWS V13.01,2013-01-13 14:45:00,
2013-01-13 09:50:00,76.6,65.7,29.76,ESE,112,2.7,3.1,69,0.00,,---,0.00,VWS V13.01,2013-01-13 14:50:00,
2013-01-13 09:55:00,76.8,65.9,29.76,ESE,112,2.5,2.7,69,0.00,,---,0.00,VWS V13.01,2013-01-13 14:55:00,
2013-01-13 10:05:00,77.4,66.4,29.76,SE,135,7.2,7.2,69,0.00,,---,0.00,VWS V13.01,2013-01-13 15:05:00,
2013-01-13 10:10:00,77.7,65.9,29.76,ESE,112,3.4,7.2,67,0.00,,---,0.00,VWS V13.01,2013-01-13 15:10:00,
2013-01-13 10:20:00,78.4,66.6,29.76,SSE,158,8.3,8.3,67,0.00,,---,0.00,VWS V13.01,2013-01-13 15:20:00,
2013-01-13 10:30:00,78.6,65.9,29.75,East,90,7.6,10.3,65,0.00,,---,0.00,VWS V13.01,2013-01-13 15:30:00,
2013-01-13 10:40:00,78.6,65.4,29.75,ESE,112,5.4,7.6,64,0.00,,---,0.00,VWS V13.01,2013-01-13 15:40:00,
2013-01-13 10:50:00,79.0,66.2,29.75,ESE,112,8.7,8.7,65,0.00,,---,0.00,VWS V13.01,2013-01-13 15:50:00,
2013-01-13 11:00:00,79.3,66.1,29.75,ESE,112,4.7,8.5,64,0.00,,---,0.00,VWS V13.01,2013-01-13 16:00:00,
2013-01-13 11:10:00,79.9,66.2,29.76,ESE,112,9.8,9.8,63,0.00,,---,0.00,VWS V13.01,2013-01-13 16:10:00,
2013-01-13 11:15:00,79.9,66.2,29.75,SE,135,4.3,9.8,63,0.00,,---,0.00,VWS V13.01,2013-01-13 16:15:00,
2013-01-13 11:25:00,79.9,65.7,29.76,East,90,6.5,9.6,62,0.00,,---,0.00,VWS V13.01,2013-01-13 16:25:00,
2013-01-13 11:30:00,79.5,66.3,29.76,SSE,158,1.1,6.5,64,0.00,,---,0.00,VWS V13.01,2013-01-13 16:30:00,
2013-01-13 11:40:00,80.1,66.3,29.76,ESE,112,7.6,7.6,63,0.00,,---,0.00,VWS V13.01,2013-01-13 16:40:00,
2013-01-13 11:45:00,80.2,66.1,29.76,SSE,158,7.2,7.6,62,0.00,,---,0.00,VWS V13.01,2013-01-13 16:45:00,
2013-01-13 11:55:00,80.4,65.8,29.76,NE,45,9.8,12.8,61,0.00,,---,0.00,VWS V13.01,2013-01-13 16:55:00,
2013-01-13 12:00:00,80.2,66.1,29.76,SE,135,1.8,9.8,62,0.00,,---,0.00,VWS V13.01,2013-01-13 17:00:00,
2013-01-13 12:10:00,81.3,67.1,29.76,South,180,4.0,8.1,62,0.00,,---,0.00,VWS V13.01,2013-01-13 17:10:00,
2013-01-13 12:20:00,81.7,66.5,29.77,South,180,9.0,9.0,60,0.00,,---,0.00,VWS V13.01,2013-01-13 17:20:00,
2013-01-13 12:25:00,81.7,66.5,29.77,SSW,202,10.5,10.5,60,0.00,,---,0.00,VWS V13.01,2013-01-13 17:25:00,
2013-01-13 12:35:00,82.0,66.3,29.76,South,180,7.4,7.4,59,0.00,,---,0.00,VWS V13.01,2013-01-13 17:35:00,
2013-01-13 12:40:00,82.0,66.3,29.76,ESE,112,1.1,7.4,59,0.00,,---,0.00,VWS V13.01,2013-01-13 17:40:00,
2013-01-13 12:50:00,81.3,66.1,29.76,East,90,4.9,5.1,60,0.00,,---,0.00,VWS V13.01,2013-01-13 17:50:00,
2013-01-13 13:00:00,81.1,65.9,29.76,SSE,158,6.5,6.5,60,0.00,,---,0.00,VWS V13.01,2013-01-13 18:00:00,
2013-01-13 13:05:00,81.3,66.1,29.76,ESE,112,6.5,6.5,60,0.00,,---,0.00,VWS V13.01,2013-01-13 18:05:00,
2013-01-13 13:15:00,81.0,65.8,29.76,SSW,202,9.4,9.4,60,0.00,,---,0.00,VWS V13.01,2013-01-13 18:15:00,
2013-01-13 13:20:00,81.3,66.1,29.76,South,180,1.6,9.4,60,0.00,,---,0.00,VWS V13.01,2013-01-13 18:20:00,
2013-01-13 13:30:00,80.2,65.1,29.76,SSE,158,7.2,7.2,60,0.00,,---,0.00,VWS V13.01,2013-01-13 18:30:00,
2013-01-13 13:35:00,79.9,64.8,29.76,ESE,112,4.3,7.2,60,0.00,,---,0.00,VWS V13.01,2013-01-13 18:35:00,
2013-01-13 13:45:00,79.9,65.2,29.76,WSW,248,5.1,8.7,61,0.00,,---,0.00,VWS V13.01,2013-01-13 18:45:00,
2013-01-13 13:50:00,80.4,65.3,29.75,WSW,248,5.6,5.6,60,0.00,,---,0.00,VWS V13.01,2013-01-13 18:50:00,
2013-01-13 14:00:00,81.3,66.1,29.75,SSW,202,9.6,9.6,60,0.00,,---,0.00,VWS V13.01,2013-01-13 19:00:00,
2013-01-13 14:10:00,81.3,65.6,29.75,NE,45,5.1,9.6,59,0.00,,---,0.00,VWS V13.01,2013-01-13 19:10:00,
2013-01-13 14:15:00,80.4,65.3,29.75,WSW,248,3.4,5.1,60,0.00,,---,0.00,VWS V13.01,2013-01-13 19:15:00,
2013-01-13 14:25:00,81.0,65.8,29.75,WSW,248,7.4,7.4,60,0.00,,---,0.00,VWS V13.01,2013-01-13 19:25:00,
2013-01-13 14:30:00,81.0,65.3,29.75,WSW,248,0.0,7.4,59,0.00,,---,0.00,VWS V13.01,2013-01-13 19:30:00,
2013-01-13 14:40:00,81.0,65.3,29.75,WSW,248,5.8,5.8,59,0.00,,---,0.00,VWS V13.01,2013-01-13 19:40:00,
2013-01-13 14:50:00,81.3,65.1,29.74,WSW,248,5.4,5.4,58,0.00,,---,0.00,VWS V13.01,2013-01-13 19:50:00,
2013-01-13 14:55:00,81.3,65.1,29.74,WSW,248,4.5,5.4,58,0.00,,---,0.00,VWS V13.01,2013-01-13 19:55:00,
2013-01-13 15:05:00,81.3,65.1,29.75,WSW,248,0.7,6.5,58,0.00,,---,0.00,VWS V13.01,2013-01-13 20:05:00,
2013-01-13 15:10:00,80.8,64.6,29.75,WSW,248,3.6,4.7,58,0.00,,---,0.00,VWS V13.01,2013-01-13 20:10:00,
2013-01-13 15:20:00,80.8,64.6,29.75,WSW,248,7.2,7.4,58,0.00,,---,0.00,VWS V13.01,2013-01-13 20:20:00,
2013-01-13 15:25:00,80.2,64.6,29.74,ENE,68,6.3,8.5,59,0.00,,---,0.00,VWS V13.01,2013-01-13 20:25:00,
2013-01-13 15:35:00,80.2,64.6,29.75,WSW,248,7.8,7.8,59,0.00,,---,0.00,VWS V13.01,2013-01-13 20:35:00,
2013-01-13 15:45:00,79.5,64.4,29.76,WSW,248,0.0,4.5,60,0.00,,---,0.00,VWS V13.01,2013-01-13 20:45:00,
2013-01-13 15:50:00,79.5,64.4,29.76,SE,135,2.2,2.2,60,0.00,,---,0.00,VWS V13.01,2013-01-13 20:50:00,
2013-01-13 16:00:00,79.0,64.4,29.76,SSE,158,6.3,6.3,61,0.00,,---,0.00,VWS V13.01,2013-01-13 21:00:00,
2013-01-13 16:10:00,79.0,64.4,29.77,WSW,248,2.9,4.5,61,0.00,,---,0.00,VWS V13.01,2013-01-13 21:10:00,
2013-01-13 16:15:00,79.0,64.4,29.77,SE,135,0.4,7.4,61,0.00,,---,0.00,VWS V13.01,2013-01-13 21:15:00,
2013-01-13 16:25:00,79.0,64.9,29.77,ESE,112,5.4,5.4,62,0.00,,---,0.00,VWS V13.01,2013-01-13 21:25:00,
2013-01-13 16:30:00,79.0,64.9,29.77,ESE,112,5.4,5.4,62,0.00,,---,0.00,VWS V13.01,2013-01-13 21:30:00,
2013-01-13 16:40:00,77.9,64.3,29.77,SE,135,9.0,9.0,63,0.00,,---,0.00,VWS V13.01,2013-01-13 21:40:00,
2013-01-13 16:45:00,77.4,63.8,29.77,SE,135,1.3,9.0,63,0.00,,---,0.00,VWS V13.01,2013-01-13 21:45:00,
2013-01-13 16:55:00,77.0,63.9,29.77,East,90,1.8,6.0,64,0.00,,---,0.00,VWS V13.01,2013-01-13 21:55:00,
2013-01-13 17:05:00,76.8,63.7,29.77,East,90,6.5,6.5,64,0.00,,---,0.00,VWS V13.01,2013-01-13 22:05:00,
2013-01-13 17:15:00,76.3,63.2,29.77,ESE,112,4.0,4.0,64,0.00,,---,0.00,VWS V13.01,2013-01-13 22:15:00,
2013-01-13 17:20:00,76.1,63.5,29.77,ESE,112,6.5,6.5,65,0.00,,---,0.00,VWS V13.01,2013-01-13 22:20:00,
2013-01-13 17:30:00,75.7,63.2,29.77,East,90,9.6,9.8,65,0.02,,---,0.02,VWS V13.01,2013-01-13 22:30:00,
2013-01-13 17:40:00,75.6,63.4,29.77,East,90,6.3,6.3,66,0.02,,---,0.02,VWS V13.01,2013-01-13 22:40:00,
2013-01-13 17:50:00,75.4,62.8,29.77,ESE,112,2.7,6.3,65,0.02,,---,0.02,VWS V13.01,2013-01-13 22:50:00,
2013-01-13 18:00:00,75.4,63.2,29.78,ESE,112,1.3,4.3,66,0.02,,---,0.02,VWS V13.01,2013-01-13 23:00:00,
2013-01-13 18:10:00,75.2,63.1,29.78,ESE,112,6.0,6.0,66,0.02,,---,0.02,VWS V13.01,2013-01-13 23:10:00,
2013-01-13 18:15:00,75.0,62.9,29.78,ESE,112,4.9,7.6,66,0.02,,---,0.02,VWS V13.01,2013-01-13 23:15:00,
2013-01-13 18:25:00,75.0,62.5,29.78,ENE,68,2.9,2.9,65,0.02,,---,0.02,VWS V13.01,2013-01-13 23:25:00,
2013-01-13 18:30:00,75.0,62.5,29.78,ENE,68,2.9,2.9,65,0.00,,---,0.02,VWS V13.01,2013-01-13 23:30:00,
2013-01-13 18:40:00,74.8,62.7,29.78,ENE,68,1.3,8.5,66,0.00,,---,0.02,VWS V13.01,2013-01-13 23:40:00,
2013-01-13 18:50:00,74.8,62.7,29.78,ESE,112,3.1,3.1,66,0.00,,---,0.02,VWS V13.01,2013-01-13 23:50:00,
2013-01-13 18:55:00,74.8,63.2,29.78,ESE,112,7.6,7.6,67,0.00,,---,0.02,VWS V13.01,2013-01-13 23:55:00,
2013-01-13 19:05:00,74.8,62.7,29.77,ESE,112,7.4,9.6,66,0.00,,---,0.02,VWS V13.01,2013-01-14 00:05:00,
2013-01-13 19:15:00,74.8,63.2,29.77,ESE,112,7.8,7.8,67,0.00,,---,0.02,VWS V13.01,2013-01-14 00:15:00,
2013-01-13 19:20:00,75.0,63.3,29.77,ESE,112,5.1,7.8,67,0.00,,---,0.02,VWS V13.01,2013-01-14 00:20:00,
2013-01-13 19:30:00,75.0,63.3,29.78,ESE,112,9.4,9.4,67,0.00,,---,0.02,VWS V13.01,2013-01-14 00:30:00,
2013-01-13 19:35:00,75.0,63.3,29.78,East,90,5.1,9.4,67,0.00,,---,0.02,VWS V13.01,2013-01-14 00:35:00,
2013-01-13 19:45:00,75.0,62.5,29.78,ENE,68,7.8,7.8,65,0.00,,---,0.02,VWS V13.01,2013-01-14 00:45:00,
2013-01-13 19:50:00,75.0,62.0,29.77,East,90,7.8,7.8,64,0.00,,---,0.02,VWS V13.01,2013-01-14 00:50:00,
2013-01-13 19:55:00,75.0,62.0,29.78,ENE,68,8.1,8.1,64,0.00,,---,0.02,VWS V13.01,2013-01-14 00:55:00,
2013-01-13 20:05:00,74.8,62.3,29.77,ESE,112,4.9,4.9,65,0.00,,---,0.02,VWS V13.01,2013-01-14 01:05:00,
2013-01-13 20:10:00,74.8,62.3,29.77,ESE,112,5.8,8.7,65,0.00,,---,0.02,VWS V13.01,2013-01-14 01:10:00,
2013-01-13 20:20:00,74.8,62.3,29.77,East,90,8.1,8.1,65,0.00,,---,0.02,VWS V13.01,2013-01-14 01:20:00,
2013-01-13 20:25:00,74.8,62.3,29.77,SE,135,2.2,8.1,65,0.00,,---,0.02,VWS V13.01,2013-01-14 01:25:00,
2013-01-13 20:35:00,74.8,62.7,29.76,East,90,1.1,6.9,66,0.00,,---,0.02,VWS V13.01,2013-01-14 01:35:00,
2013-01-13 20:40:00,74.8,62.7,29.76,SE,135,1.8,5.6,66,0.00,,---,0.02,VWS V13.01,2013-01-14 01:40:00,
2013-01-13 20:50:00,74.8,62.3,29.76,ESE,112,5.8,7.8,65,0.00,,---,0.02,VWS V13.01,2013-01-14 01:50:00,
2013-01-13 21:00:00,75.0,62.0,29.76,East,90,6.5,8.3,64,0.00,,---,0.02,VWS V13.01,2013-01-14 02:00:00,
2013-01-13 21:05:00,75.0,62.5,29.76,SE,135,8.1,8.1,65,0.00,,---,0.02,VWS V13.01,2013-01-14 02:05:00,
2013-01-13 21:15:00,75.0,62.5,29.75,ESE,112,5.1,6.5,65,0.00,,---,0.02,VWS V13.01,2013-01-14 02:15:00,
2013-01-13 21:25:00,75.0,62.5,29.75,ESE,112,5.6,7.2,65,0.00,,---,0.02,VWS V13.01,2013-01-14 02:25:00,
2013-01-13 21:35:00,75.0,62.9,29.75,SSE,158,3.4,6.5,66,0.00,,---,0.02,VWS V13.01,2013-01-14 02:35:00,
2013-01-13 21:45:00,75.0,62.9,29.75,ESE,112,11.6,12.8,66,0.00,,---,0.02,VWS V13.01,2013-01-14 02:45:00,
2013-01-13 21:50:00,75.0,62.9,29.75,ESE,112,4.7,11.6,66,0.00,,---,0.02,VWS V13.01,2013-01-14 02:50:00,
2013-01-13 22:00:00,74.8,62.7,29.75,East,90,7.8,9.6,66,0.00,,---,0.02,VWS V13.01,2013-01-14 03:00:00,
2013-01-13 22:05:00,74.8,62.7,29.75,SSE,158,14.5,14.5,66,0.00,,---,0.02,VWS V13.01,2013-01-14 03:05:00,
2013-01-13 22:15:00,74.8,62.7,29.75,ESE,112,13.6,13.6,66,0.00,,---,0.02,VWS V13.01,2013-01-14 03:15:00,
2013-01-13 22:25:00,74.8,62.7,29.76,East,90,3.8,10.3,66,0.00,,---,0.02,VWS V13.01,2013-01-14 03:25:00,
2013-01-13 22:30:00,74.8,62.7,29.76,SE,135,7.4,7.4,66,0.00,,---,0.02,VWS V13.01,2013-01-14 03:30:00,
2013-01-13 22:35:00,74.7,62.1,29.76,ESE,112,9.2,10.1,65,0.00,,---,0.02,VWS V13.01,2013-01-14 03:35:00,
2013-01-13 22:45:00,74.5,62.0,29.77,ENE,68,5.1,8.1,65,0.00,,---,0.02,VWS V13.01,2013-01-14 03:45:00,
2013-01-13 22:50:00,74.5,62.0,29.77,ENE,68,5.1,5.1,65,0.00,,---,0.02,VWS V13.01,2013-01-14 03:50:00,
2013-01-13 22:55:00,74.5,62.4,29.77,ESE,112,5.1,5.1,66,0.00,,---,0.02,VWS V13.01,2013-01-14 03:55:00,
2013-01-13 23:05:00,74.5,62.4,29.77,ESE,112,7.2,7.2,66,0.00,,---,0.02,VWS V13.01,2013-01-14 04:05:00,
2013-01-13 23:15:00,74.5,62.4,29.76,SE,135,5.6,5.6,66,0.00,,---,0.02,VWS V13.01,2013-01-14 04:15:00,
2013-01-13 23:25:00,74.5,62.4,29.76,East,90,13.0,13.0,66,0.00,,---,0.02,VWS V13.01,2013-01-14 04:25:00,
2013-01-13 23:35:00,74.7,63.0,29.76,East,90,8.5,8.5,67,0.00,,---,0.02,VWS V13.01,2013-01-14 04:35:00,
2013-01-13 23:40:00,74.7,63.0,29.76,SE,135,11.9,11.9,67,0.00,,---,0.02,VWS V13.01,2013-01-14 04:40:00,
2013-01-13 23:50:00,74.8,63.2,29.76,SE,135,1.6,3.4,67,0.00,,---,0.02,VWS V13.01,2013-01-14 04:50:00,
2013-01-13 23:55:00,74.7,63.0,29.77,ESE,112,1.8,11.0,67,0.00,,---,0.02,VWS V13.01,2013-01-14 04:55:00,